RYR9507 EPKK-EPSC

Flight info

Callsign RYR9507
Flight time 0h 49m
Altitude 28000
Route LUMV2J LUMVE L619 DENKO L996 XERBI DCT FORFE DCT ZAWIK ZAWI1B
Aircraft B38M/M-SDE1FGHILORVWXY/HB1

Departure

Time 2026-04-22 09:26
Airport Kraków John Paul II International Airport (EPKK)

Arrival

Time 2026-04-22 10:16
Airport Solidarity Szczecin–Goleniów Airport (EPSC)
Time Latitude Longitude Altitude Speed Heading
2026-04-22 09:26 50.14008 19.40408 13690 ft 320 kts 312°
2026-04-22 09:26 50.15398 19.37721 14528 ft 325 kts 313°
2026-04-22 09:27 50.16825 19.34965 15357 ft 329 kts 313°
2026-04-22 09:27 50.18270 19.32173 16196 ft 333 kts 313°
2026-04-22 09:27 50.19731 19.29348 17031 ft 336 kts 313°
2026-04-22 09:27 50.21207 19.26493 17840 ft 341 kts 313°
2026-04-22 09:28 50.22704 19.23592 18591 ft 345 kts 313°
2026-04-22 09:28 50.24218 19.20654 19267 ft 349 kts 313°
2026-04-22 09:28 50.25746 19.17688 19920 ft 352 kts 313°
2026-04-22 09:28 50.27288 19.14691 20555 ft 356 kts 313°
2026-04-22 09:29 50.28846 19.11659 21184 ft 359 kts 313°
2026-04-22 09:29 50.30420 19.08594 21814 ft 363 kts 313°
2026-04-22 09:29 50.32009 19.05494 22443 ft 367 kts 313°
2026-04-22 09:29 50.33613 19.02363 23064 ft 371 kts 313°
2026-04-22 09:30 50.35347 18.99394 23666 ft 369 kts 324°
2026-04-22 09:30 50.37399 18.96975 24178 ft 371 kts 327°
2026-04-22 09:30 50.39453 18.94493 24692 ft 375 kts 327°
2026-04-22 09:30 50.41528 18.91996 25229 ft 377 kts 327°
2026-04-22 09:31 50.43618 18.89483 25786 ft 379 kts 327°
2026-04-22 09:31 50.45708 18.86970 26447 ft 378 kts 327°
2026-04-22 09:31 50.47791 18.84463 27094 ft 377 kts 327°
2026-04-22 09:31 50.49868 18.81961 27709 ft 376 kts 327°
2026-04-22 09:32 50.51918 18.79489 28155 ft 379 kts 327°
2026-04-22 09:32 50.56083 18.74458 28220 ft 376 kts 327°
2026-04-22 09:33 50.60227 18.69441 28222 ft 376 kts 327°
2026-04-22 09:33 50.64368 18.64416 28221 ft 376 kts 327°
2026-04-22 09:34 50.68509 18.59379 28225 ft 376 kts 327°
2026-04-22 09:34 50.72647 18.54335 28224 ft 376 kts 327°
2026-04-22 09:35 50.78847 18.46756 28233 ft 376 kts 327°
2026-04-22 09:35 50.82982 18.41687 28224 ft 377 kts 328°
2026-04-22 09:36 50.87129 18.36591 28230 ft 378 kts 328°
2026-04-22 09:36 50.91276 18.31482 28235 ft 378 kts 328°
2026-04-22 09:37 50.95424 18.26361 28235 ft 378 kts 328°
2026-04-22 09:37 50.99569 18.21233 28208 ft 378 kts 328°
2026-04-22 09:38 51.03721 18.16082 28241 ft 379 kts 328°
2026-04-22 09:38 51.07877 18.10916 28236 ft 379 kts 328°
2026-04-22 09:39 51.12030 18.05740 28240 ft 379 kts 328°
2026-04-22 09:39 51.16197 18.00536 28245 ft 381 kts 328°
2026-04-22 09:40 51.20370 17.95311 28246 ft 381 kts 328°
2026-04-22 09:40 51.24539 17.90078 28242 ft 381 kts 328°
2026-04-22 09:41 51.28712 17.84830 28244 ft 382 kts 328°
2026-04-22 09:41 51.32890 17.79561 28246 ft 382 kts 328°
2026-04-22 09:42 51.37063 17.74286 28250 ft 382 kts 328°
2026-04-22 09:42 51.41236 17.68999 28255 ft 382 kts 328°
2026-04-22 09:43 51.45421 17.63683 28250 ft 385 kts 329°
2026-04-22 09:43 51.49624 17.58332 28251 ft 386 kts 328°
2026-04-22 09:44 51.53827 17.52968 28261 ft 386 kts 328°
2026-04-22 09:44 51.58026 17.47595 28254 ft 386 kts 328°
2026-04-22 09:45 51.62226 17.42210 28267 ft 386 kts 328°
2026-04-22 09:45 51.66423 17.36814 28257 ft 386 kts 328°
2026-04-22 09:46 51.70618 17.31407 28257 ft 386 kts 328°
2026-04-22 09:46 51.74787 17.26023 28252 ft 387 kts 328°
2026-04-22 09:47 51.78996 17.20571 28244 ft 388 kts 328°
2026-04-22 09:47 51.83198 17.15116 28262 ft 388 kts 328°
2026-04-22 09:48 51.87401 17.09646 28265 ft 388 kts 328°
2026-04-22 09:48 51.91600 17.04167 28261 ft 388 kts 328°
2026-04-22 09:49 51.95801 16.98673 28266 ft 388 kts 328°
2026-04-22 09:49 51.99994 16.93174 28263 ft 388 kts 328°
2026-04-22 09:50 52.04187 16.87663 28224 ft 388 kts 327°
2026-04-22 09:50 52.08373 16.82148 28265 ft 387 kts 327°
2026-04-22 09:51 52.12556 16.76622 28265 ft 387 kts 327°
2026-04-22 09:51 52.16736 16.71095 28264 ft 386 kts 329°
2026-04-22 09:52 52.21238 16.66520 28252 ft 381 kts 335°
2026-04-22 09:52 52.25731 16.61909 28266 ft 382 kts 334°
2026-04-22 09:53 52.30182 16.57277 28054 ft 372 kts 334°
2026-04-22 09:53 52.32349 16.55014 27665 ft 368 kts 334°
2026-04-22 09:53 52.34495 16.52769 27287 ft 365 kts 334°
2026-04-22 09:54 52.36621 16.50543 26923 ft 361 kts 334°
2026-04-22 09:54 52.38729 16.48333 26547 ft 358 kts 334°
2026-04-22 09:54 52.40792 16.46168 26175 ft 356 kts 334°
2026-04-22 09:54 52.42867 16.43987 25804 ft 353 kts 334°
2026-04-22 09:55 52.44928 16.41820 25441 ft 351 kts 334°
2026-04-22 09:55 52.46972 16.39667 25079 ft 348 kts 333°
2026-04-22 09:55 52.49005 16.37524 24724 ft 346 kts 333°
2026-04-22 09:55 52.51025 16.35391 24363 ft 344 kts 333°
2026-04-22 09:56 52.53033 16.33269 24009 ft 342 kts 333°
2026-04-22 09:56 52.55029 16.31158 23615 ft 341 kts 333°
2026-04-22 09:56 52.57014 16.29056 23218 ft 338 kts 333°
2026-04-22 09:56 52.58981 16.26970 22856 ft 335 kts 333°
2026-04-22 09:57 52.60927 16.24906 22512 ft 331 kts 333°
2026-04-22 09:57 52.62853 16.22859 22154 ft 328 kts 333°
2026-04-22 09:57 52.64758 16.20833 21799 ft 324 kts 333°
2026-04-22 09:57 52.66031 16.19477 21599 ft 321 kts 333°
2026-04-22 09:58 52.67873 16.17515 21278 ft 318 kts 333°
2026-04-22 09:58 52.69724 16.15541 20951 ft 315 kts 333°
2026-04-22 09:58 52.71555 16.13586 20628 ft 312 kts 333°
2026-04-22 09:58 52.73371 16.11646 20306 ft 310 kts 332°
2026-04-22 09:59 52.75172 16.09719 19985 ft 307 kts 332°
2026-04-22 09:59 52.76957 16.07808 19673 ft 304 kts 332°
2026-04-22 09:59 52.78725 16.05913 19359 ft 302 kts 332°
2026-04-22 09:59 52.80483 16.04026 19043 ft 300 kts 332°
2026-04-22 10:00 52.82226 16.02155 18732 ft 298 kts 332°
2026-04-22 10:00 52.83957 16.00295 18404 ft 296 kts 332°
2026-04-22 10:00 52.85673 15.98447 18059 ft 293 kts 332°
2026-04-22 10:00 52.87371 15.96618 17740 ft 290 kts 332°
2026-04-22 10:01 52.89053 15.94804 17446 ft 287 kts 332°
2026-04-22 10:01 52.90743 15.92981 17134 ft 292 kts 332°
2026-04-22 10:01 52.92461 15.91126 16818 ft 296 kts 332°
2026-04-22 10:01 52.94189 15.89257 16516 ft 296 kts 332°
2026-04-22 10:02 52.95905 15.87401 16195 ft 293 kts 332°
2026-04-22 10:02 52.97601 15.85563 15895 ft 289 kts 332°
2026-04-22 10:02 52.99278 15.83745 15593 ft 286 kts 332°
2026-04-22 10:02 53.00936 15.81946 15296 ft 283 kts 332°
2026-04-22 10:03 53.02578 15.80163 15006 ft 281 kts 332°
2026-04-22 10:03 53.04204 15.78394 14714 ft 278 kts 332°
2026-04-22 10:03 53.05819 15.76638 14424 ft 276 kts 332°
2026-04-22 10:03 53.07417 15.74896 14125 ft 274 kts 332°
2026-04-22 10:04 53.09003 15.73167 13805 ft 272 kts 332°
2026-04-22 10:04 53.10577 15.71450 13492 ft 269 kts 332°
2026-04-22 10:04 53.12113 15.69772 13212 ft 267 kts 331°
2026-04-22 10:04 53.13673 15.68066 12958 ft 270 kts 331°
2026-04-22 10:05 53.15231 15.66361 12736 ft 266 kts 332°
2026-04-22 10:05 53.16764 15.64683 12494 ft 262 kts 332°
2026-04-22 10:05 53.18277 15.63025 12207 ft 259 kts 332°
2026-04-22 10:05 53.19777 15.61380 11919 ft 257 kts 332°
2026-04-22 10:06 53.21262 15.59750 11636 ft 255 kts 332°
2026-04-22 10:06 53.22772 15.58263 11329 ft 250 kts 340°
2026-04-22 10:06 53.24355 15.57089 11027 ft 249 kts 340°
2026-04-22 10:06 53.25927 15.55897 10746 ft 247 kts 339°
2026-04-22 10:07 53.27486 15.54697 10457 ft 246 kts 339°
2026-04-22 10:07 53.29013 15.53508 10318 ft 238 kts 338°
2026-04-22 10:07 53.30337 15.51836 10010 ft 245 kts 315°
2026-04-22 10:07 53.31362 15.49505 9553 ft 252 kts 311°
2026-04-22 10:08 53.32389 15.47080 9043 ft 259 kts 310°
2026-04-22 10:08 53.33429 15.44578 8539 ft 266 kts 309°
2026-04-22 10:08 53.34488 15.42002 8034 ft 272 kts 308°
2026-04-22 10:08 53.35564 15.39361 7531 ft 277 kts 308°
2026-04-22 10:09 53.36639 15.36704 7042 ft 273 kts 307°
2026-04-22 10:09 53.37694 15.34090 6537 ft 269 kts 307°
2026-04-22 10:09 53.38732 15.31515 6046 ft 265 kts 307°
2026-04-22 10:09 53.39753 15.28979 5530 ft 261 kts 307°
2026-04-22 10:10 53.40754 15.26486 5123 ft 254 kts 306°
2026-04-22 10:10 53.41719 15.24086 4828 ft 243 kts 307°
2026-04-22 10:10 53.42641 15.21786 4547 ft 232 kts 306°
2026-04-22 10:10 53.43523 15.19584 4262 ft 223 kts 307°
2026-04-22 10:11 53.44364 15.17495 4088 ft 209 kts 309°
2026-04-22 10:11 53.45279 15.15687 3849 ft 199 kts 315°
2026-04-22 10:11 53.46180 15.14007 3645 ft 187 kts 314°
2026-04-22 10:11 53.47007 15.12433 3435 ft 175 kts 314°
2026-04-22 10:12 53.47791 15.10921 3196 ft 170 kts 316°
2026-04-22 10:12 53.48564 15.09439 2947 ft 168 kts 315°
2026-04-22 10:12 53.49323 15.07986 2736 ft 163 kts 315°
2026-04-22 10:12 53.50059 15.06555 2526 ft 161 kts 314°
2026-04-22 10:13 53.50792 15.05140 2279 ft 160 kts 314°
2026-04-22 10:13 53.51517 15.03732 2087 ft 158 kts 314°
2026-04-22 10:13 53.52232 15.02335 1870 ft 157 kts 314°
2026-04-22 10:13 53.52951 15.00948 1627 ft 155 kts 313°
2026-04-22 10:14 53.53619 14.99636 1472 ft 141 kts 314°
2026-04-22 10:14 53.54240 14.98438 1271 ft 134 kts 313°
2026-04-22 10:14 53.54841 14.97282 1088 ft 129 kts 313°
2026-04-22 10:14 53.55420 14.96152 888 ft 128 kts 310°
2026-04-22 10:15 53.55999 14.95018 748 ft 130 kts 312°
2026-04-22 10:15 53.56618 14.93850 554 ft 136 kts 310°
2026-04-22 10:15 53.57234 14.92640 362 ft 135 kts 309°
2026-04-22 10:15 53.57837 14.91468 167 ft 129 kts 309°
2026-04-22 10:16 53.58358 14.90447 143 ft 96 kts 311°
2026-04-22 10:16 53.58711 14.89763 141 ft 60 kts 311°
2026-04-22 10:16 53.58929 14.89339 143 ft 44 kts 310°
2026-04-22 10:16 53.59044 14.89118 143 ft 11 kts 322°
2026-04-22 10:17 53.59101 14.89158 141 ft 11 kts 41°
2026-04-22 10:17 53.59163 14.89257 138 ft 8 kts 64°
2026-04-22 10:17 53.59143 14.89348 138 ft 10 kts 127°
2026-04-22 10:17 53.59108 14.89441 138 ft 8 kts 93°
2026-04-22 10:18 53.59147 14.89527 138 ft 10 kts 39°
2026-04-22 10:18 53.59194 14.89592 138 ft 8 kts 39°
2026-04-22 10:18 53.59232 14.89613 138 ft 6 kts 334°
2026-04-22 10:18 53.59253 14.89580 138 ft 0 kts 313°
2026-04-22 10:19 53.59252 14.89580 138 ft 0 kts 313°
2026-04-22 10:22 53.59252 14.89581 138 ft 0 kts 313°